Location: Namasale
(1.5000°N, 32.6167°E)
Time: 10:09:21
(UTC+00:00)

Vanguard 1 Rocket - Pass Details

Date: 25 April 2021
Orbit: 652 x 4225 km, 34.3° (Epoch: 15 May)

Event Time Altitude Azimuth Distance (km) Brightness Sun altitude
Rises 06:19:16 0° 238° (WSW) 8,238 11.8 37.2°
Reaches altitude 10° 06:25:32 10° 240° (WSW) 6,895 11.5 38.7°
Maximum altitude 06:46:08 68° 320° (NW) 2,556 10.2 43.6°
Drops below altitude 10° 06:56:32 10° 42° (NE) 3,751 11.3 46.1°
Sets 06:58:54 0° 45° (NE) 4,419 11.5 46.7°
